[[{"header":{"parameterUnit":"m.s-1","parameterCategory":2,"la1":30.2991,"la2":30.254,"lo1":-89.0895,"lo2":-89.0444,"dy":0.0017,"dx":0.0017,"nx":28,"ny":28,"refTime":"2025-05-20T09:00:00:Z","depth":"0","parameterNumber":2,"parameterNumberName":"U-component_of_CURRENTS"},"data":[0,0,0,0,0,0,0,0,0,0,0,0,0,0,0,0,0,0,0,0,0,0,0,0,0,0,0,0,0,0,0,0,0,0,0,0,0,0,0,0,0,0,0,0,0,0,0,0,0,0,0,0,0,0,0,0,0,0,0.1233,0.1233,0,0.116,0.1159,0.1158,0.1153,0.1154,0.1156,0.1157,0.1172,0.1171,0.117,0,0,0,0,0,0,0,0,0,0,0,0,0,0.1306,0.1304,0.1233,0.1233,0.1232,0.116,0.1159,0.1157,0.1153,0.1154,0.1156,0.1157,0.1172,0.1171,0.117,0,0,0,0,0,0,0,0,0,0,0,0,0,0.1254,0.1304,0.1233,0.1224,0.1223,0.116,0.1159,0.1157,0.1153,0.1154,0.1156,0.1158,0.1172,0.1171,0.117,0.1128,0,0,0.1167,0.1167,0,0,0,0,0,0,0,0,0.1257,0.1251,0.1226,0.1225,0.1223,0.1171,0.119,0.1153,0.1152,0.1175,0.1157,0.1159,0.1181,0.1179,0.1155,0.1129,0.1129,0.1167,0.1166,0.1166,0.1166,0,0,0,0,0,0,0,0.1261,0.1254,0.12,0.1225,0.1223,0.1202,0.1197,0.1182,0.1168,0.1173,0.1174,0.1171,0.1181,0.1156,0.1155,0.113,0.1167,0.1166,0.1165,0.1165,0.1177,0.1178,0,0,0,0,0,0,0.1278,0.1257,0.1203,0.1198,0.1249,0.12,0.1194,0.1183,0.1166,0.1165,0.117,0.1171,0.1157,0.1157,0.1156,0.1248,0.1166,0.1165,0.1164,0.1176,0.1177,0.1178,0,0,0,0,0,0,0.128,0.1274,0.1206,0.123,0.122,0.1198,0.1184,0.118,0.1168,0.1163,0.1164,0.1165,0.1158,0.1158,0.1163,0.1244,0.1164,0.1163,0.1175,0.1177,0.1178,0.1341,0,0,0,0,0,0,0.1282,0.1274,0.1276,0.1231,0.122,0.12,0.1183,0.1178,0.1165,0.1167,0.1158,0.1161,0.1159,0.1165,0.1162,0.1241,0.1163,0.1174,0.1176,0.1177,0.1335,0.1348,0.1359,0,0,0,0,0,0.1285,0.1308,0.1276,0.127,0.1221,0.1202,0.1194,0.1181,0.1164,0.1172,0.116,0.1162,0.1176,0.1164,0.1161,0.1242,0.1173,0.1175,0.1177,0.1329,0.1345,0.1359,0,0,0,0,0,0,0.1353,0.1308,0.1273,0.1282,0.1249,0.1204,0.1217,0.1181,0.1169,0.1176,0.1157,0.1159,0.1204,0.1173,0.116,0.1244,0.1181,0.1182,0.1297,0.1312,0.1324,0.1416,0.1162,0,0,0,0,0,0.136,0.1362,0.1305,0.1314,0.1301,0.1246,0.1235,0.1215,0.1196,0.1191,0.1184,0.1181,0.1203,0.1217,0.1219,0.1246,0.1275,0.1295,0.1308,0.1319,0.1388,0.1471,0.15,0.1185,0.1185,0.1185,0,0,0.1388,0.1365,0.1366,0.1327,0.13,0.1316,0.1246,0.1241,0.1274,0.1195,0.1246,0.1221,0.1214,0.1268,0.1287,0.1259,0.1418,0.1322,0.1333,0.1396,0.1477,0.1508,0.1536,0.1187,0.1187,0.1186,0,0,0.1462,0.1423,0.1448,0.1428,0.1394,0.1372,0.1371,0.1324,0.133,0.1337,0.1318,0.1348,0.1333,0.1385,0.1399,0.1472,0.1477,0.1448,0.1601,0.168,0.1709,0.1734,0.1801,0.1832,0.146,0.1461,0.1461,0,0.1495,0.1515,0.1455,0.1477,0.1485,0.1407,0.1444,0.144,0.1406,0.1439,0.1385,0.1435,0.1418,0.1542,0.1573,0.1518,0.1542,0.1551,0.1705,0.173,0.1754,0.1817,0.1849,0.1469,0.1468,0.1467,0.1466,0,0.158,0.1599,0.1621,0.1626,0.1625,0.1646,0.1625,0.1643,0.1621,0.162,0.17,0.167,0.1713,0.1706,0.1667,0.183,0.1785,0.1711,0.1685,0.1798,0.1853,0.1884,0.148,0.1477,0.1475,0.1473,0,0,0.1647,0.1674,0.1682,0.1696,0.1703,0.17,0.1791,0.1842,0.1889,0.1897,0.1987,0.204,0.2009,0.2025,0.1979,0.2054,0.2222,0.1964,0.1964,0.2066,0.2398,0.2342,0.2368,0.2166,0.2172,0.2177,0.2368,0,0.1731,0.1795,0.1805,0.1881,0.1903,0.1899,0.1968,0.2007,0.2025,0.2088,0.2136,0.2177,0.2133,0.2127,0.2221,0.2192,0.2311,0.2178,0.2246,0.225,0.2215,0.2405,0.2271,0.2429,0.2397,0.2402,0.2406,0,0.1802,0.1837,0.1906,0.1969,0.198,0.2024,0.2105,0.2151,0.2252,0.2268,0.2375,0.2365,0.2509,0.2405,0.2573,0.2479,0.2497,0.2488,0.2493,0.2423,0.2252,0.2309,0.2485,0.2473,0.2452,0.2448,0.2445,0,0.1808,0.1912,0.1963,0.1978,0.2032,0.2089,0.2133,0.221,0.2242,0.2379,0.2405,0.2574,0.2597,0.2705,0.2704,0.2645,0.2851,0.2747,0.2753,0.2746,0.2646,0.2621,0.2858,0.294,0.294,0.2939,0.2939,0,0.185,0.1906,0.1966,0.1968,0.2048,0.2083,0.2158,0.2226,0.231,0.2364,0.2476,0.2546,0.2667,0.2767,0.2801,0.2886,0.2947,0.287,0.283,0.269,0.2668,0.2656,0.2635,0.2946,0.2945,0.2943,0.2942,0,0.182,0.1862,0.1913,0.1989,0.2023,0.2056,0.2142,0.2191,0.2266,0.2346,0.2393,0.2549,0.2676,0.2788,0.2929,0.2967,0.2989,0.3073,0.2901,0.284,0.2819,0.2809,0.2835,0.2761,0.3153,0.3153,0.3153,0,0.1815,0.1825,0.1883,0.1908,0.1944,0.2013,0.2057,0.2154,0.22,0.2335,0.2375,0.2532,0.2633,0.2847,0.2934,0.3066,0.2979,0.3044,0.2939,0.2899,0.2858,0.2662,0.2582,0.2861,0.2859,0.2858,0.2856,0,0.1804,0.1801,0.1827,0.186,0.191,0.1953,0.2032,0.206,0.2165,0.2219,0.2315,0.241,0.2613,0.2714,0.2895,0.2944,0.2901,0.3011,0.3029,0.2755,0.2502,0.2378,0.2642,0.2841,0.2842,0.2843,0.2844,0.2845,0.1787,0.1806,0.1815,0.1845,0.1873,0.1883,0.1905,0.1982,0.2019,0.2091,0.2216,0.2307,0.2535,0.2751,0.2785,0.2831,0.2777,0.2819,0.2844,0.2673,0.2519,0.2764,0.2861,0.2862,0.2864,0.2865,0.2866,0,0.1762,0.1791,0.1821,0.1825,0.1794,0.1831,0.1875,0.1876,0.1894,0.1991,0.205,0.224,0.2397,0.2559,0.2727,0.2711,0.2515,0.2688,0.242,0.2377,0.2677,0.2584,0.2552,0.2552,0.2552,0.2552,0.2552,0.2552,0.175,0.1769,0.1788,0.1743,0.1728,0.169,0.169,0.17,0.1749,0.1806,0.1888,0.2011,0.2353,0.2636,0.2718,0.2654,0.247,0.2331,0.2373,0.2642,0.2655,0.2667,0.2579,0.2547,0.2547,0.1894,0.189,0.1887]},{"header":{"parameterUnit":"m.s-1","parameterCategory":2,"la1":30.2991,"la2":30.254,"lo1":-89.0895,"lo2":-89.0444,"dy":0.0017,"dx":0.0017,"nx":28,"ny":28,"refTime":"2025-05-20T09:00:00:Z","depth":"0","parameterNumber":3,"parameterNumberName":"V-component_of_CURRENTS"},"data":[0,0,0,0,0,0,0,0,0,0,0,0,0,0,0,0,0,0,0,0,0,0,0,0,0,0,0,0,0,0,0,0,0,0,0,0,0,0,0,0,0,0,0,0,0,0,0,0,0,0,0,0,0,0,0,0,0,0,0.0245,0.0244,0,0.0151,0.0149,0.0148,0.0094,0.0093,0.0093,0.0093,0.0026,0.0024,0.0023,0,0,0,0,0,0,0,0,0,0,0,0,0,0.0367,0.0365,0.0245,0.0244,0.0243,0.0151,0.0149,0.0148,0.0094,0.0093,0.0093,0.0093,0.0027,0.0025,0.0023,0,0,0,0,0,0,0,0,0,0,0,0,0,0.0297,0.0365,0.0245,0.0205,0.0201,0.0151,0.0149,0.0148,0.0094,0.0093,0.0093,0.0093,0.0027,0.0025,0.0022,0.0012,0,0,0.0015,0.0014,0,0,0,0,0,0,0,0,0.0301,0.0293,0.0212,0.0208,0.0203,0.0134,0.0168,0.0104,0.0094,0.0134,0.0093,0.0093,0.0065,0.006,0.0041,0.0009,0.0006,0.0015,0.0013,0.0012,0.0011,0,0,0,0,0,0,0,0.0306,0.0296,0.0207,0.0211,0.0205,0.0188,0.0178,0.0155,0.0102,0.013,0.0126,0.0117,0.0063,0.0044,0.0039,0.0005,0.0015,0.0013,0.0011,0.001,0.0007,0.0009,0,0,0,0,0,0,0.0319,0.0301,0.021,0.0204,0.0253,0.0186,0.0174,0.0156,0.0102,0.0093,0.0117,0.0114,0.0048,0.0042,0.0037,0.0059,0.0012,0.001,0.0008,0.0006,0.0008,0.0009,0,0,0,0,0,0,0.0322,0.0312,0.0214,0.0252,0.0238,0.0184,0.0164,0.0154,0.0131,0.0091,0.0083,0.0103,0.0048,0.004,0.0025,0.0055,0.0009,0.0007,0.0004,0.0007,0.0009,0.0081,0,0,0,0,0,0,0.0326,0.0313,0.0304,0.0252,0.0236,0.0196,0.0164,0.0153,0.0125,0.0121,0.0077,0.007,0.0047,0.0029,0.0023,0.0051,0.0005,0.0003,0.0005,0.0008,0.0077,0.0085,0.0092,0,0,0,0,0,0.0331,0.0332,0.0304,0.0293,0.0225,0.0196,0.0187,0.0148,0.0125,0.0123,0.0094,0.0071,0.0042,0.0027,0.002,0.0048,0.0001,0.0005,0.0008,0.0073,0.0083,0.0092,0,0,0,0,0,0,0.0378,0.0324,0.0293,0.0275,0.024,0.0188,0.0183,0.0149,0.012,0.0117,0.0076,0.0068,0.007,0.0048,0.0033,0.0058,0.0023,0.0025,0.0076,0.0085,0.0093,0.0133,0.0003,0,0,0,0,0,0.0383,0.0373,0.0314,0.0302,0.0285,0.023,0.0211,0.0183,0.0151,0.0136,0.0107,0.0086,0.0077,0.0071,0.0057,0.006,0.0043,0.0079,0.0087,0.0094,0.0123,0.0098,0.0106,0.002,0.002,0.002,0,0,0.0398,0.0368,0.036,0.0312,0.028,0.0276,0.0219,0.0198,0.0205,0.0136,0.0141,0.0107,0.0083,0.0093,0.0094,0.0078,0.0111,0.0098,0.0103,0.0129,0.0102,0.0111,0.0118,0.0022,0.0021,0.0021,0,0,0.0433,0.0395,0.0397,0.0375,0.0333,0.031,0.0305,0.0253,0.0241,0.023,0.0194,0.0182,0.0155,0.0154,0.0148,0.0191,0.015,0.0183,0.0257,0.0232,0.0239,0.0245,0.0239,0.0244,0.0191,0.0191,0.0191,0,0.0447,0.0437,0.0395,0.0395,0.0389,0.0331,0.0339,0.0325,0.028,0.0277,0.0248,0.0226,0.0195,0.0223,0.024,0.0212,0.019,0.0219,0.0242,0.0247,0.0252,0.0245,0.0249,0.0195,0.0194,0.0194,0.0193,0,0.0484,0.0473,0.0479,0.0463,0.0459,0.0456,0.0433,0.0431,0.0405,0.0379,0.0385,0.0346,0.0337,0.0325,0.0294,0.0324,0.0295,0.0249,0.0217,0.0265,0.0254,0.0257,0.02,0.0199,0.0198,0.0197,0,0,0.0509,0.0501,0.0501,0.0507,0.0492,0.0494,0.0525,0.0523,0.0539,0.0509,0.0535,0.0515,0.0479,0.0473,0.0434,0.0418,0.0424,0.0355,0.0351,0.0349,0.038,0.0382,0.0385,0.0366,0.0367,0.0367,0.036,0,0.054,0.056,0.0554,0.059,0.0598,0.0583,0.0618,0.0619,0.0606,0.0621,0.0595,0.0599,0.0542,0.0536,0.0516,0.0443,0.0435,0.0432,0.0335,0.0334,0.0328,0.039,0.0345,0.0336,0.0363,0.0363,0.0364,0,0.0572,0.0583,0.0614,0.0648,0.0651,0.0678,0.0721,0.0736,0.0749,0.0742,0.0747,0.0714,0.0719,0.0649,0.0583,0.0577,0.0501,0.044,0.0436,0.0422,0.0343,0.0291,0.034,0.0245,0.0368,0.0368,0.0367,0,0.0604,0.0631,0.0662,0.0669,0.0696,0.0727,0.0749,0.0768,0.0794,0.0821,0.0844,0.0825,0.0825,0.074,0.0629,0.0597,0.0544,0.0474,0.0417,0.0416,0.0356,0.0349,0.0305,0.0438,0.0438,0.0438,0.0438,0,0.0629,0.0654,0.0682,0.0691,0.0764,0.0764,0.0827,0.085,0.0882,0.0932,0.0907,0.0952,0.0841,0.0796,0.0678,0.0578,0.0582,0.0464,0.0424,0.0381,0.0377,0.0273,0.023,0.0437,0.0437,0.0437,0.0438,0,0.064,0.0651,0.0693,0.0737,0.0773,0.0817,0.0891,0.0937,0.0953,0.1028,0.1049,0.1046,0.098,0.0869,0.0733,0.065,0.0486,0.0499,0.0476,0.0435,0.0295,0.0259,0.0214,0.0171,0.0446,0.0446,0.0446,0,0.0663,0.0677,0.0732,0.0781,0.0804,0.0875,0.0943,0.0982,0.1033,0.109,0.1144,0.111,0.1116,0.0946,0.0751,0.0581,0.0474,0.046,0.0398,0.032,0.0248,0.0219,0.0183,0.0341,0.034,0.034,0.0339,0,0.0717,0.0713,0.0733,0.0813,0.0898,0.0981,0.1069,0.1131,0.1183,0.1248,0.131,0.1316,0.1148,0.0973,0.0752,0.0606,0.0395,0.0444,0.035,0.0181,0.0157,0.0085,0.0327,0.0334,0.0334,0.0335,0.0335,0.0335,0.0752,0.0791,0.0811,0.0884,0.0958,0.1064,0.1157,0.125,0.1351,0.146,0.1436,0.1478,0.1227,0.0902,0.0677,0.0309,0.0341,0.0215,0.0184,0.0168,0.0117,0.0379,0.0347,0.0347,0.0348,0.0348,0.0349,0,0.0808,0.0849,0.0911,0.0984,0.1038,0.1084,0.1233,0.1331,0.1475,0.1577,0.1628,0.1567,0.1201,0.0841,0.0347,0.011,-0.0003,-0.0007,-0.0086,-0.0107,0.0102,0.0086,0.001,0.001,0.001,0.001,0.001,0.001,0.0835,0.0896,0.0927,0.104,0.1095,0.1219,0.1315,0.1473,0.1581,0.176,0.1835,0.1889,0.1729,0.0713,0.0062,-0.0113,-0.0267,-0.0299,-0.0327,-0.0225,-0.0208,-0.0191,-0.0217,-0.0356,-0.0356,-0.0556,-0.0558,-0.0559]}],[{"header":{"parameterUnit":"m.s-1","parameterCategory":2,"la1":30.2991,"la2":30.254,"lo1":-89.0895,"lo2":-89.0444,"dy":0.0017,"dx":0.0017,"nx":28,"ny":28,"refTime":"2025-05-20T09:00:00:Z","depth":"2","parameterNumber":2,"parameterNumberName":"U-component_of_CURRENTS"},"data":[0,0,0,0,0,0,0,0,0,0,0,0,0,0,0,0,0,0,0,0,0,0,0,0,0,0,0,0,0,0,0,0,0,0,0,0,0,0,0,0,0,0,0,0,0,0,0,0,0,0,0,0,0,0,0,0,0,0,0.1177,0.1176,0,0.1112,0.1111,0.111,0.1109,0.111,0.1111,0.1112,0.1129,0.1128,0.1128,0,0,0,0,0,0,0,0,0,0,0,0,0,0.1246,0.1245,0.1177,0.1176,0.1176,0.1112,0.1111,0.1109,0.1109,0.111,0.1112,0.1113,0.1129,0.1128,0.1128,0,0,0,0,0,0,0,0,0,0,0,0,0,0.1198,0.1244,0.1177,0.1171,0.117,0.1112,0.1111,0.1109,0.1108,0.111,0.1112,0.1114,0.113,0.1129,0.1127,0.1083,0,0,0.1124,0.1124,0,0,0,0,0,0,0,0,0.1201,0.1195,0.1172,0.1172,0.1171,0.1124,0.1141,0.1106,0.1108,0.1127,0.1112,0.1115,0.1137,0.1135,0.1111,0.1084,0.1085,0.1124,0.1123,0.1123,0.1123,0,0,0,0,0,0,0,0.1204,0.1197,0.1146,0.1172,0.1171,0.1154,0.1149,0.1134,0.112,0.1125,0.1126,0.1126,0.1136,0.1112,0.1112,0.1085,0.1124,0.1123,0.1122,0.1122,0.1133,0.1134,0,0,0,0,0,0,0.1222,0.12,0.1149,0.1145,0.1196,0.1152,0.1146,0.1134,0.1118,0.1119,0.1124,0.1126,0.1113,0.1113,0.1113,0.1202,0.1123,0.1122,0.1121,0.1132,0.1133,0.1134,0,0,0,0,0,0,0.1223,0.1217,0.1151,0.1176,0.1167,0.1149,0.1135,0.1131,0.112,0.1118,0.1119,0.112,0.1114,0.1114,0.1121,0.1198,0.1121,0.112,0.1131,0.1132,0.1134,0.1291,0,0,0,0,0,0,0.1225,0.1217,0.1218,0.1176,0.1166,0.1148,0.1133,0.1129,0.1119,0.1121,0.1114,0.1116,0.1116,0.1123,0.112,0.1195,0.112,0.113,0.1132,0.1133,0.1285,0.1298,0.1309,0,0,0,0,0,0.1227,0.1249,0.1218,0.1212,0.1166,0.1149,0.1142,0.1132,0.1117,0.1125,0.1115,0.1117,0.1133,0.1121,0.1118,0.1196,0.1129,0.1131,0.1133,0.1279,0.1295,0.1309,0,0,0,0,0,0,0.1292,0.1249,0.1215,0.1223,0.1192,0.1152,0.1166,0.1132,0.1122,0.113,0.1113,0.1115,0.116,0.113,0.1117,0.1198,0.1137,0.1138,0.1249,0.1264,0.1276,0.1367,0.1119,0,0,0,0,0,0.1297,0.1299,0.1245,0.1253,0.1241,0.119,0.1181,0.1163,0.1147,0.1143,0.1137,0.1136,0.1158,0.1172,0.1174,0.12,0.1214,0.1247,0.126,0.127,0.1339,0.1388,0.1413,0.1141,0.1141,0.1141,0,0,0.1325,0.1304,0.1304,0.1266,0.1242,0.1258,0.1191,0.1188,0.1222,0.1147,0.1199,0.1174,0.1169,0.1221,0.1239,0.1213,0.135,0.1273,0.1283,0.1347,0.1393,0.1421,0.1445,0.1143,0.1142,0.1142,0,0,0.14,0.1359,0.1384,0.1365,0.1334,0.1313,0.1313,0.1269,0.1275,0.1285,0.1267,0.1296,0.1283,0.1333,0.1348,0.1418,0.1407,0.1394,0.1545,0.1591,0.1616,0.1638,0.1681,0.1706,0.1407,0.1408,0.1408,0,0.1434,0.1454,0.1392,0.1415,0.1424,0.1347,0.1385,0.1381,0.1352,0.1383,0.1332,0.1382,0.1366,0.1486,0.1517,0.1462,0.1467,0.1497,0.1614,0.1636,0.1656,0.1695,0.1721,0.1415,0.1414,0.1414,0.1413,0,0.1519,0.1538,0.156,0.1566,0.1564,0.1587,0.1565,0.1583,0.1563,0.1561,0.1639,0.161,0.1653,0.1645,0.1609,0.175,0.1699,0.1622,0.1593,0.1695,0.1727,0.1751,0.1427,0.1424,0.1421,0.1419,0,0,0.1582,0.1615,0.1624,0.163,0.1644,0.1633,0.1731,0.178,0.1824,0.1834,0.1923,0.1973,0.1941,0.1957,0.1913,0.1963,0.2089,0.1864,0.1862,0.1939,0.2192,0.205,0.2061,0.2017,0.2022,0.2026,0.2156,0,0.1666,0.1729,0.175,0.1817,0.1825,0.1833,0.1911,0.1946,0.1961,0.2022,0.2067,0.2106,0.2063,0.2058,0.2128,0.2065,0.216,0.2062,0.2058,0.206,0.1947,0.2088,0.1911,0.2002,0.2179,0.2183,0.2185,0,0.1732,0.1757,0.1837,0.1887,0.1899,0.1954,0.2032,0.2083,0.2187,0.2201,0.2304,0.2292,0.2413,0.2312,0.2411,0.2336,0.2326,0.2291,0.2292,0.214,0.1964,0.1928,0.2038,0.2225,0.2221,0.2219,0.2216,0,0.1712,0.1816,0.1877,0.1891,0.1948,0.2017,0.2063,0.2145,0.2177,0.2311,0.2335,0.2479,0.2497,0.255,0.25,0.2456,0.2565,0.2475,0.2382,0.2369,0.2216,0.2181,0.2621,0.262,0.262,0.262,0.2619,0,0.174,0.1784,0.1872,0.1867,0.1944,0.1995,0.2075,0.2141,0.2243,0.2288,0.2406,0.2474,0.2549,0.2599,0.2582,0.2553,0.2644,0.248,0.2419,0.2257,0.2226,0.2403,0.2376,0.2624,0.2623,0.2623,0.2622,0,0.1675,0.1745,0.1795,0.1886,0.191,0.1949,0.2039,0.2082,0.2189,0.226,0.2307,0.2477,0.2561,0.2615,0.2674,0.2609,0.2606,0.2584,0.2389,0.2304,0.2375,0.2354,0.2531,0.2528,0.2525,0.2523,0.2521,0,0.1611,0.165,0.1752,0.1792,0.184,0.1906,0.1932,0.2029,0.2065,0.2245,0.227,0.2431,0.2491,0.2552,0.2524,0.2523,0.2595,0.2334,0.224,0.2457,0.238,0.2363,0.2347,0.2103,0.2098,0.2094,0.209,0,0.1518,0.1609,0.1665,0.1731,0.1778,0.1819,0.1875,0.1895,0.2011,0.2056,0.2175,0.2253,0.2353,0.2297,0.2297,0.2269,0.2312,0.2242,0.256,0.2119,0.2054,0.1976,0.1975,0.2052,0.2056,0.2059,0.2061,0.2062,0.1505,0.1523,0.1633,0.1695,0.1737,0.1764,0.1761,0.1822,0.1847,0.1906,0.2024,0.2046,0.2078,0.2002,0.1959,0.1956,0.2092,0.1998,0.2012,0.2031,0.1925,0.1854,0.1797,0.18,0.1802,0.1803,0.1805,0,0.1481,0.1528,0.1578,0.165,0.1653,0.1707,0.1724,0.1715,0.1701,0.1739,0.1768,0.163,0.1601,0.1687,0.1601,0.1561,0.1563,0.153,0.1532,0.157,0.1604,0.1477,0.1231,0.1229,0.1228,0.1226,0,0,0.1509,0.1533,0.1525,0.1527,0.158,0.1564,0.156,0.1549,0.1554,0.148,0.1429,0.1502,0.1579,0.1359,0.134,0.1285,0.142,0.1243,0.1703,0.1742,0.1774,0.1872,0.1717,0,0,0,0,0]},{"header":{"parameterUnit":"m.s-1","parameterCategory":2,"la1":30.2991,"la2":30.254,"lo1":-89.0895,"lo2":-89.0444,"dy":0.0017,"dx":0.0017,"nx":28,"ny":28,"refTime":"2025-05-20T09:00:00:Z","depth":"2","parameterNumber":3,"parameterNumberName":"V-component_of_CURRENTS"},"data":[0,0,0,0,0,0,0,0,0,0,0,0,0,0,0,0,0,0,0,0,0,0,0,0,0,0,0,0,0,0,0,0,0,0,0,0,0,0,0,0,0,0,0,0,0,0,0,0,0,0,0,0,0,0,0,0,0,0,0.0175,0.0174,0,0.0088,0.0087,0.0085,0.0035,0.0035,0.0035,0.0035,-0.003,-0.0031,-0.0033,0,0,0,0,0,0,0,0,0,0,0,0,0,0.0291,0.0289,0.0175,0.0174,0.0173,0.0088,0.0087,0.0085,0.0035,0.0035,0.0035,0.0035,-0.0029,-0.0031,-0.0033,0,0,0,0,0,0,0,0,0,0,0,0,0,0.0225,0.0288,0.0175,0.0138,0.0134,0.0088,0.0086,0.0085,0.0035,0.0035,0.0035,0.0035,-0.0029,-0.0031,-0.0033,-0.0046,0,0,-0.0041,-0.0042,0,0,0,0,0,0,0,0,0.0228,0.022,0.0145,0.0141,0.0136,0.0073,0.0104,0.0043,0.0035,0.0072,0.0035,0.0035,0.0008,0.0002,-0.0016,-0.0049,-0.0052,-0.0041,-0.0043,-0.0044,-0.0044,0,0,0,0,0,0,0,0.0233,0.0224,0.0139,0.0144,0.0139,0.0124,0.0114,0.0092,0.0041,0.0068,0.0065,0.0057,0.0005,-0.0014,-0.0018,-0.0053,-0.0041,-0.0043,-0.0045,-0.0046,-0.0058,-0.0057,0,0,0,0,0,0,0.0246,0.0228,0.0142,0.0137,0.0184,0.0122,0.0111,0.0093,0.0041,0.0033,0.0057,0.0055,-0.0009,-0.0015,-0.002,-0.0005,-0.0044,-0.0046,-0.0047,-0.0059,-0.0058,-0.0056,0,0,0,0,0,0,0.0249,0.0239,0.0145,0.0182,0.0169,0.012,0.01,0.0091,0.0068,0.0032,0.0024,0.0044,-0.001,-0.0017,-0.0034,-0.0009,-0.0047,-0.0049,-0.006,-0.0059,-0.0057,0.0005,0,0,0,0,0,0,0.0252,0.024,0.023,0.0183,0.0168,0.0126,0.01,0.0089,0.0065,0.0061,0.0018,0.0012,-0.001,-0.003,-0.0036,-0.0013,-0.0051,-0.0062,-0.006,-0.0058,0.0001,0.0009,0.0015,0,0,0,0,0,0.0257,0.0255,0.023,0.0219,0.0155,0.0127,0.0118,0.0082,0.0064,0.006,0.0033,0.0013,-0.002,-0.0031,-0.0039,-0.0016,-0.0063,-0.006,-0.0058,-0.0002,0.0007,0.0015,0,0,0,0,0,0,0.0298,0.0248,0.022,0.0201,0.0166,0.0119,0.0114,0.0083,0.0055,0.0053,0.0015,0.0008,0.0005,-0.0014,-0.0026,-0.001,-0.004,-0.0039,0.0006,0.0014,0.002,0.0062,-0.0053,0,0,0,0,0,0.0302,0.0292,0.0235,0.0223,0.0206,0.0156,0.0139,0.0113,0.0082,0.0069,0.0042,0.0021,0.001,0.0004,-0.0012,-0.0012,-0.0038,0.0003,0.0009,0.0015,0.0045,-0.0002,0.0003,-0.0048,-0.0048,-0.0048,0,0,0.0315,0.0289,0.0281,0.0233,0.0203,0.0197,0.0146,0.0126,0.0131,0.0068,0.0071,0.0038,0.0014,0.0019,0.0018,0.0005,0.0017,0.0018,0.0023,0.0051,0.0001,0.0006,0.001,-0.0046,-0.0046,-0.0047,0,0,0.0349,0.0311,0.0312,0.029,0.025,0.0227,0.0222,0.0174,0.0161,0.0149,0.0116,0.0101,0.0074,0.007,0.0063,0.0098,0.005,0.009,0.0159,0.0112,0.0115,0.0118,0.0095,0.0096,0.0096,0.0097,0.0097,0,0.0363,0.0352,0.031,0.0308,0.0303,0.0247,0.0253,0.0238,0.0195,0.0191,0.0165,0.014,0.0108,0.013,0.0144,0.0115,0.0082,0.0127,0.0119,0.0122,0.0123,0.0099,0.0099,0.01,0.01,0.0099,0.0099,0,0.0397,0.0385,0.039,0.0373,0.0367,0.0363,0.0338,0.0335,0.0311,0.0283,0.0285,0.0246,0.0236,0.0221,0.0192,0.0204,0.0173,0.0126,0.0097,0.0132,0.0105,0.0103,0.0105,0.0103,0.0102,0.0102,0,0,0.0417,0.0413,0.0412,0.0411,0.0398,0.0393,0.0426,0.042,0.0435,0.0402,0.0427,0.0399,0.0365,0.0359,0.0321,0.0287,0.0261,0.022,0.0216,0.0197,0.0167,0.0103,0.0095,0.0194,0.0194,0.0194,0.0143,0,0.0445,0.0457,0.0465,0.0489,0.0478,0.0478,0.0519,0.0514,0.0497,0.0508,0.0479,0.0481,0.0423,0.0421,0.0381,0.0282,0.0259,0.0281,0.0139,0.0136,0.0073,0.0092,0.01,0.0051,0.0141,0.0141,0.0141,0,0.047,0.0462,0.05,0.0523,0.0527,0.0567,0.0607,0.0627,0.0639,0.0631,0.063,0.0594,0.0577,0.0515,0.0395,0.0403,0.0311,0.0233,0.0227,0.0152,0.007,0.003,0.0044,0.0137,0.0138,0.0138,0.0138,0,0.047,0.0493,0.0531,0.0536,0.0564,0.0614,0.0638,0.066,0.0687,0.071,0.0729,0.0689,0.0686,0.056,0.0409,0.0391,0.0261,0.0208,0.0082,0.0077,0.0053,0.0045,0.0144,0.0144,0.0144,0.0144,0.0144,0,0.0483,0.0495,0.0542,0.0544,0.0606,0.0629,0.0703,0.0721,0.0775,0.0817,0.0793,0.0835,0.0691,0.0602,0.0446,0.0259,0.0285,0.0113,0.0059,0.0075,0.007,0.012,0.0118,0.0142,0.0143,0.0143,0.0143,0,0.0467,0.0498,0.0537,0.059,0.0605,0.0657,0.0739,0.0774,0.0833,0.0899,0.0922,0.0932,0.0831,0.0669,0.0476,0.0313,0.0132,0.0068,0.011,0.0061,-0.0023,-0.0021,-0.0076,-0.0079,-0.0081,-0.0083,-0.0084,0,0.0439,0.0472,0.0557,0.0615,0.0651,0.0717,0.075,0.0793,0.0841,0.0958,0.0994,0.0973,0.0932,0.0642,0.0399,0.0131,0.0124,-0.005,-0.0082,0.0002,-0.0045,-0.004,-0.0035,-0.0081,-0.0082,-0.0083,-0.0084,0,0.0398,0.0484,0.0534,0.0639,0.0705,0.0777,0.0838,0.0892,0.0967,0.1023,0.112,0.1105,0.0885,0.0632,0.0286,0.011,-0.0018,-0.0085,-0.0012,-0.0036,-0.001,-0.0055,-0.0048,-0.0095,-0.0094,-0.0093,-0.0092,-0.0092,0.0432,0.0453,0.0569,0.0684,0.0766,0.0878,0.0933,0.1019,0.111,0.1214,0.1186,0.1137,0.0853,0.0411,0.0155,-0.0075,-0.0074,-0.0204,-0.0197,-0.0189,-0.019,-0.0171,-0.0284,-0.0284,-0.0284,-0.0284,-0.0284,0,0.0473,0.0504,0.0584,0.0736,0.085,0.0902,0.1004,0.1086,0.1195,0.1227,0.1253,0.0961,0.0668,0.0406,0.0043,-0.0229,-0.0209,-0.0292,-0.0215,-0.0206,-0.0197,-0.0195,-0.0291,-0.0292,-0.0292,-0.0292,0,0,0.0516,0.0575,0.057,0.0755,0.0897,0.104,0.1117,0.1231,0.128,0.1296,0.1218,0.1068,0.0702,0.0422,0.0104,-0.0074,-0.0072,-0.0107,-0.0086,0.0051,0.0063,-0.0144,-0.0131,0,0,0,0,0]}],[{"header":{"parameterUnit":"m.s-1","parameterCategory":2,"la1":30.2991,"la2":30.254,"lo1":-89.0895,"lo2":-89.0444,"dy":0.0017,"dx":0.0017,"nx":28,"ny":28,"refTime":"2025-05-20T09:00:00:Z","depth":"4","parameterNumber":2,"parameterNumberName":"U-component_of_CURRENTS"},"data":[0,0,0,0,0,0,0,0,0,0,0,0,0,0,0,0,0,0,0,0,0,0,0,0,0,0,0,0,0,0,0,0,0,0,0,0,0,0,0,0,0,0,0,0,0,0,0,0,0,0,0,0,0,0,0,0,0,0,0.0083,0.0082,0,0.0148,0.0151,0.0153,0.016,0.0157,0.0155,0.0152,0.015,0.0153,0.0155,0,0,0,0,0,0,0,0,0,0,0,0,0,-0.0056,-0.0052,0.0083,0.0082,0.0081,0.0148,0.0151,0.0154,0.016,0.0157,0.0154,0.0151,0.015,0.0152,0.0155,0,0,0,0,0,0,0,0,0,0,0,0,0,0.0026,-0.005,0.0083,0.0077,0.0076,0.0147,0.0151,0.0154,0.0161,0.0157,0.0153,0.015,0.0149,0.0152,0.0156,0.0253,0,0,0.0166,0.0168,0,0,0,0,0,0,0,0,0.0021,0.0034,0.0079,0.0077,0.0076,0.0124,0.01,0.0177,0.0162,0.015,0.0152,0.0148,0.0125,0.013,0.0181,0.0253,0.0252,0.0166,0.0168,0.017,0.0171,0,0,0,0,0,0,0,0.0016,0.003,0.0129,0.0078,0.0076,0.0063,0.0073,0.0116,0.0173,0.0151,0.0146,0.0123,0.0126,0.0178,0.018,0.0252,0.0166,0.0169,0.0171,0.0173,0.0357,0.036,0,0,0,0,0,0,-0.0027,0.0026,0.0127,0.0129,0.0016,0.0067,0.0079,0.0129,0.0173,0.0171,0.0126,0.0122,0.0174,0.0176,0.018,0.0277,0.017,0.0173,0.0175,0.0355,0.0358,0.0361,0,0,0,0,0,0,-0.0029,-0.0015,0.0124,0.0057,0.0071,0.0072,0.0129,0.0132,0.0225,0.0151,0.0151,0.0215,0.0171,0.0175,0.0166,0.0276,0.0175,0.0178,0.0351,0.0356,0.0359,0.0482,0,0,0,0,0,0,-0.0031,-0.0014,0.0013,0.0058,0.0073,0.0172,0.013,0.0135,0.0202,0.0201,0.0228,0.0221,0.0168,0.0161,0.017,0.0279,0.0181,0.0348,0.0353,0.0358,0.0474,0.049,0.0503,0,0,0,0,0,-0.0035,-0.0048,0.0017,0.0026,0.0112,0.0172,0.0184,0.018,0.0211,0.0258,0.0219,0.0223,0.0203,0.0164,0.0174,0.0287,0.0345,0.0352,0.0358,0.0468,0.0487,0.0502,0,0,0,0,0,0,-0.0087,-0.0047,0.0022,0.0035,0.0121,0.0165,0.0194,0.0237,0.0269,0.0264,0.0232,0.0222,0.0269,0.0258,0.0216,0.0355,0.0291,0.03,0.0371,0.0389,0.0403,0.0387,0.0183,0,0,0,0,0,-0.0077,-0.0064,0.0018,0.0052,0.0112,0.0205,0.0235,0.0252,0.0269,0.0289,0.0289,0.0293,0.0311,0.0322,0.0323,0.0399,0.0342,0.0487,0.0502,0.0514,0.0507,0.0507,0.052,0.0382,0.0382,0.0382,0,0,-0.0076,-0.0062,-0.0042,0.0042,0.0139,0.0213,0.0223,0.0291,0.0332,0.0281,0.0339,0.0345,0.0338,0.0385,0.0415,0.0386,0.0516,0.0522,0.0533,0.0518,0.0515,0.0528,0.0539,0.0386,0.0385,0.0385,0,0,-0.011,-0.0019,-0.0012,0.006,0.0152,0.0226,0.0272,0.0365,0.04,0.0455,0.0422,0.0464,0.0516,0.0507,0.052,0.0631,0.0588,0.0681,0.0751,0.0753,0.0763,0.0772,0.0676,0.0675,0.0695,0.0695,0.0695,0,-0.0116,-0.0077,0.0007,0.004,0.0071,0.0256,0.0297,0.0397,0.0448,0.0444,0.0472,0.0528,0.0575,0.0595,0.0661,0.067,0.0619,0.0685,0.077,0.0777,0.0784,0.0683,0.0681,0.0702,0.0701,0.07,0.07,0,-0.0116,-0.0085,-0.0053,0.0066,0.0123,0.0197,0.0324,0.0407,0.0504,0.0547,0.0596,0.0635,0.0644,0.0734,0.0759,0.0848,0.0775,0.0781,0.072,0.0805,0.0693,0.0688,0.0711,0.0709,0.0707,0.0705,0,0,-0.0136,-0.0076,-0.0065,-0.0024,0.0126,0.0182,0.0283,0.0386,0.0426,0.0544,0.0541,0.0702,0.0731,0.0748,0.0794,0.087,0.0937,0.0888,0.0885,0.0778,0.0864,0.088,0.0873,0.0963,0.0964,0.0965,0.0751,0,-0.0134,-0.0124,-0.0113,-0.0034,0.0039,0.0148,0.0206,0.0301,0.0405,0.0458,0.0561,0.0605,0.0735,0.0758,0.0859,0.095,0.0936,0.0988,0.0808,0.08,0.0796,0.0876,0.0968,0.0746,0.0745,0.0744,0.0743,0,-0.0129,-0.0126,-0.011,-0.0092,-0.0054,-0.0007,0.0095,0.0156,0.027,0.033,0.0401,0.0464,0.0624,0.0704,0.0838,0.0869,0.0864,0.091,0.0901,0.087,0.0811,0.0655,0.0733,0.0734,0.0735,0.0735,0.0736,0,-0.0156,-0.0135,-0.0138,-0.011,-0.0037,-0.005,0.0009,0.0105,0.015,0.0246,0.0289,0.0401,0.0489,0.0574,0.0759,0.0792,0.0847,0.0862,0.079,0.0783,0.077,0.0763,0.082,0.082,0.0821,0.0822,0.0822,0,-0.0168,-0.0166,-0.0148,-0.0134,-0.0128,-0.0092,-0.0081,-0.0011,0.0054,0.012,0.0224,0.0291,0.0487,0.056,0.0673,0.0761,0.075,0.0799,0.0761,0.082,0.0822,0.0762,0.0758,0.0813,0.0815,0.0817,0.0818,0,-0.0186,-0.0176,-0.0169,-0.0148,-0.0139,-0.0124,-0.0096,-0.0072,-0.0005,0.0075,0.0108,0.0242,0.0373,0.046,0.0577,0.0647,0.0712,0.0665,0.0658,0.062,0.063,0.0635,0.0574,0.0574,0.0573,0.0573,0.0572,0,-0.0192,-0.0198,-0.0177,-0.0164,-0.0158,-0.0136,-0.0118,-0.0071,-0.0035,0.0076,0.0116,0.0195,0.0294,0.0434,0.0545,0.0589,0.0597,0.0553,0.0688,0.0652,0.0619,0.0625,0.063,0.0572,0.0572,0.0571,0.0571,0,-0.021,-0.0215,-0.0206,-0.0179,-0.0163,-0.0133,-0.0111,-0.0083,-0.0007,0.0027,0.0163,0.0244,0.0315,0.045,0.0435,0.0499,0.0612,0.0549,0.0551,0.0677,0.0648,0.0617,0.0623,0.057,0.057,0.057,0.057,0,-0.0227,-0.0222,-0.022,-0.0184,-0.0165,-0.0116,-0.0103,-0.0044,-0.0001,0.0113,0.0157,0.0265,0.0322,0.039,0.0439,0.0475,0.0495,0.0529,0.0532,0.0534,0.0645,0.061,0.049,0,0,0,0,0,-0.0235,-0.0234,-0.0221,-0.0176,-0.0155,-0.0134,-0.0089,-0.0069,-0.0013,0.0089,0.013,0.0214,0.0328,0.0375,0.0408,0.04,0.0468,0.0439,0.05,0.0561,0.0563,0.0712,0,0,0,0,0,0,-0.0245,-0.0245,-0.0226,-0.0174,-0.0141,-0.0105,-0.0067,-0.0019,0.0034,0.01,0.0153,0.0212,0.0295,0.0298,0.0404,0.0414,0.0461,0.0484,0.0485,0.056,0.0562,0.0563,0.0717,0,0,0,0,0]},{"header":{"parameterUnit":"m.s-1","parameterCategory":2,"la1":30.2991,"la2":30.254,"lo1":-89.0895,"lo2":-89.0444,"dy":0.0017,"dx":0.0017,"nx":28,"ny":28,"refTime":"2025-05-20T09:00:00:Z","depth":"4","parameterNumber":3,"parameterNumberName":"V-component_of_CURRENTS"},"data":[0,0,0,0,0,0,0,0,0,0,0,0,0,0,0,0,0,0,0,0,0,0,0,0,0,0,0,0,0,0,0,0,0,0,0,0,0,0,0,0,0,0,0,0,0,0,0,0,0,0,0,0,0,0,0,0,0,0,-0.0175,-0.0175,0,-0.0176,-0.0177,-0.0177,-0.0155,-0.0153,-0.0152,-0.0151,-0.0194,-0.0197,-0.0199,0,0,0,0,0,0,0,0,0,0,0,0,0,-0.0183,-0.0183,-0.0175,-0.0175,-0.0174,-0.0176,-0.0177,-0.0177,-0.0155,-0.0153,-0.0152,-0.0151,-0.0194,-0.0196,-0.0199,0,0,0,0,0,0,0,0,0,0,0,0,0,-0.0187,-0.0183,-0.0175,-0.0158,-0.0156,-0.0176,-0.0177,-0.0178,-0.0155,-0.0153,-0.0152,-0.015,-0.0193,-0.0196,-0.0199,-0.0256,0,0,-0.021,-0.0211,0,0,0,0,0,0,0,0,-0.0187,-0.0188,-0.0162,-0.016,-0.0157,-0.0158,-0.0195,-0.0204,-0.0156,-0.0162,-0.0151,-0.0149,-0.0183,-0.0187,-0.02,-0.0258,-0.026,-0.021,-0.0212,-0.0214,-0.0215,0,0,0,0,0,0,0,-0.0187,-0.0188,-0.0182,-0.0161,-0.0158,-0.016,-0.0159,-0.0197,-0.0189,-0.0162,-0.0158,-0.0149,-0.0183,-0.0197,-0.0201,-0.0261,-0.021,-0.0213,-0.0215,-0.0216,-0.0342,-0.0344,0,0,0,0,0,0,-0.0174,-0.0188,-0.0182,-0.0181,-0.0161,-0.0161,-0.016,-0.0165,-0.0187,-0.0187,-0.015,-0.0148,-0.0192,-0.0197,-0.0202,-0.0254,-0.0214,-0.0217,-0.0219,-0.0341,-0.0343,-0.0344,0,0,0,0,0,0,-0.0175,-0.0175,-0.0182,-0.0178,-0.0178,-0.0162,-0.0168,-0.0166,-0.0176,-0.0177,-0.0178,-0.0161,-0.0191,-0.0197,-0.0255,-0.0256,-0.0218,-0.0221,-0.034,-0.0342,-0.0343,-0.0368,0,0,0,0,0,0,-0.0176,-0.0175,-0.0192,-0.0178,-0.0178,-0.0206,-0.0169,-0.0167,-0.0169,-0.0166,-0.0187,-0.0189,-0.019,-0.025,-0.0258,-0.026,-0.0224,-0.0338,-0.034,-0.0343,-0.0366,-0.0371,-0.0375,0,0,0,0,0,-0.0176,-0.0223,-0.0193,-0.0192,-0.0196,-0.0207,-0.021,-0.0194,-0.0171,-0.0194,-0.0211,-0.0188,-0.0269,-0.0255,-0.0264,-0.0266,-0.0337,-0.034,-0.0343,-0.0364,-0.037,-0.0375,0,0,0,0,0,0,-0.0242,-0.0224,-0.0191,-0.0229,-0.0213,-0.0201,-0.0223,-0.0202,-0.0233,-0.023,-0.0228,-0.0234,-0.0273,-0.0282,-0.0265,-0.031,-0.0291,-0.0296,-0.0303,-0.0309,-0.0314,-0.0318,-0.0227,0,0,0,0,0,-0.0258,-0.0284,-0.0249,-0.0278,-0.0269,-0.0242,-0.0247,-0.023,-0.0241,-0.0251,-0.0259,-0.0273,-0.0295,-0.0312,-0.0334,-0.0382,-0.0385,-0.0383,-0.0388,-0.0392,-0.0402,-0.0401,-0.0405,-0.0354,-0.0354,-0.0354,0,0,-0.0282,-0.0281,-0.029,-0.0292,-0.0276,-0.0279,-0.0244,-0.0254,-0.0262,-0.0255,-0.0291,-0.0296,-0.0313,-0.0352,-0.0368,-0.0359,-0.0415,-0.0395,-0.0398,-0.0407,-0.0404,-0.0409,-0.0413,-0.0356,-0.0355,-0.0355,0,0,-0.0321,-0.0344,-0.0349,-0.0362,-0.0342,-0.0328,-0.0328,-0.0312,-0.0314,-0.0346,-0.0333,-0.0353,-0.0388,-0.0398,-0.0407,-0.046,-0.0437,-0.0451,-0.0482,-0.048,-0.0484,-0.0487,-0.0522,-0.0528,-0.0454,-0.0455,-0.0455,0,-0.0333,-0.0332,-0.0356,-0.0373,-0.0371,-0.0347,-0.0337,-0.0363,-0.037,-0.038,-0.0361,-0.0409,-0.0409,-0.0459,-0.046,-0.0469,-0.0473,-0.0456,-0.0485,-0.0488,-0.0491,-0.0525,-0.0532,-0.0456,-0.0456,-0.0456,-0.0456,0,-0.0343,-0.0364,-0.0382,-0.0377,-0.041,-0.0403,-0.0419,-0.0442,-0.0425,-0.0432,-0.0472,-0.0487,-0.0509,-0.0502,-0.0493,-0.0517,-0.0517,-0.0486,-0.0465,-0.0497,-0.0532,-0.0538,-0.0458,-0.0458,-0.0457,-0.0457,0,0,-0.0279,-0.0349,-0.0354,-0.0338,-0.0396,-0.0396,-0.0463,-0.047,-0.0478,-0.052,-0.0537,-0.0574,-0.0575,-0.0586,-0.058,-0.0573,-0.0589,-0.0533,-0.0532,-0.056,-0.0609,-0.0516,-0.0514,-0.0548,-0.0549,-0.0549,-0.0634,0,-0.0227,-0.0231,-0.0307,-0.0314,-0.0296,-0.0366,-0.0418,-0.047,-0.0496,-0.0531,-0.0583,-0.0603,-0.0615,-0.06,-0.0615,-0.0564,-0.0602,-0.0571,-0.0581,-0.0583,-0.0488,-0.0517,-0.0552,-0.0638,-0.064,-0.0641,-0.0641,0,-0.0184,-0.0177,-0.0171,-0.0223,-0.0222,-0.0261,-0.0307,-0.0355,-0.0468,-0.05,-0.0588,-0.0622,-0.0667,-0.0642,-0.0669,-0.0641,-0.0648,-0.0628,-0.063,-0.0537,-0.05,-0.0595,-0.0652,-0.0651,-0.0651,-0.065,-0.0649,0,-0.0073,-0.0092,-0.0063,-0.0089,-0.0156,-0.0184,-0.022,-0.0338,-0.0379,-0.0492,-0.0522,-0.0616,-0.0624,-0.0657,-0.0652,-0.0647,-0.0656,-0.0645,-0.0612,-0.0607,-0.0654,-0.0649,-0.0702,-0.0702,-0.0702,-0.0702,-0.0701,0,-0.0004,0.0008,0.0001,-0.0002,0.0017,-0.0079,-0.0108,-0.019,-0.0295,-0.0348,-0.0494,-0.0525,-0.0612,-0.0643,-0.0662,-0.0644,-0.0684,-0.0629,-0.0614,-0.0668,-0.0664,-0.066,-0.0654,-0.0705,-0.0704,-0.0703,-0.0703,0,0.0024,0.0034,0.0051,0.0042,0.0042,0.0026,-0.0064,-0.0091,-0.0191,-0.0269,-0.0307,-0.0442,-0.0457,-0.0556,-0.0577,-0.062,-0.0624,-0.0629,-0.071,-0.0696,-0.0595,-0.059,-0.0609,-0.0606,-0.0604,-0.0602,-0.0601,0,0.0023,0.0055,0.0071,0.0074,0.0051,0.0041,0.0015,-0.0063,-0.01,-0.0198,-0.0223,-0.0283,-0.0369,-0.0379,-0.0452,-0.054,-0.0547,-0.0611,-0.0596,-0.0598,-0.0582,-0.058,-0.0578,-0.0597,-0.0596,-0.0596,-0.0595,0,0.0026,0.003,0.004,0.0068,0.0062,0.0052,0.0029,0.0024,-0.0055,-0.0108,-0.0146,-0.0215,-0.0241,-0.0305,-0.0383,-0.0439,-0.0587,-0.0587,-0.0593,-0.058,-0.0583,-0.0569,-0.057,-0.0587,-0.0588,-0.0589,-0.0589,0,0.0002,0.0006,0.0036,0.0043,0.0047,0.0041,0.0034,0.0031,0.0006,-0.0072,-0.0049,-0.0136,-0.018,-0.0249,-0.0297,-0.0355,-0.0373,-0.0432,-0.0446,-0.0457,-0.0368,-0.0348,-0.0271,0,0,0,0,0,-0.0022,-0.0004,0.0015,0.0025,0.0027,0.0023,0.0031,0.0031,0.0023,0.001,-0.0026,-0.005,-0.0134,-0.017,-0.0205,-0.0254,-0.0391,-0.03,-0.0468,-0.0542,-0.0551,-0.0462,0,0,0,0,0,0,-0.0038,-0.0015,0.0015,0.0017,0.0011,0.0012,0.0006,-0.0001,0.0006,-0.0005,-0.0029,-0.0065,-0.0123,-0.0105,-0.0207,-0.0224,-0.0339,-0.0336,-0.0337,-0.0537,-0.0545,-0.0553,-0.0464,0,0,0,0,0]}]]